Location: Alincthun
(50.7310°N, 1.8022°E)
Time: 19:05:18
(UTC+00:00)

Cosmos 1805 Rocket - Pass Details

Date: 17 February 2020
Orbit: 606 x 629 km, 82.5° (Epoch: 05 April)

Event Time Altitude Azimuth Distance (km) Brightness Sun altitude
Rises 06:24:26 0° 340° (NNW) 2,881 6.7 -6.6°
Reaches altitude 10° 06:26:55 10° 328° (NNW) 1,970 5.7 -6.2°
Maximum altitude 06:30:32 26° 272° (W) 1,204 4.5 -5.7°
Drops below altitude 10° 06:34:08 10° 215° (SW) 1,956 5.9 -5.1°
Sets 06:36:36 0° 203° (SSW) 2,855 6.9 -4.7°
